Location: *
(49.1466°N, 1.6216°E)
Time: 19:55:42
(UTC+00:00)

USA 215 - Pass Details

Date: 25 September 2023
Orbit: 1098 x 1109 km, 123.0° (Epoch: 06 December)

Event Time Altitude Azimuth Distance (km) Brightness Sun altitude
Exits shadow 20:39:37 31° 56° (NE) 1,835 4.2 -27.7°
Maximum altitude 20:43:06 87° 328° (NNW) 1,112 3.2 -28.1°
Drops below altitude 10° 20:49:40 10° 241° (WSW) 2,966 5.8 -29.0°
Sets 20:52:09 0° 241° (WSW) 3,923 6.4 -29.3°
